Temp
8 8 8 8 8 8 7 7 7 7 8 8 8 8 7 8 8 8 8 8 8 8 8 8 8 8 8 8 8 8 8 8 9 8 8 15 19 19 20 20 20 20 19 19 18 18 19 19 19 19 20 20 20 21 21 21 22 22 21 21 21 21 22 23 24 25 25 26 26 26 26 26 26 25 25 25 24 23 23 22 22 22 22 21 20 20 19 19
8 7 8 7 7 8 7 7 7 7 7 7 7 7 7 8 8 8 8 8 8 8 8 8 8 8 8 8 8 8 8 8 8 8 12 18 20 19 20 20 19 19 19 18 18 18 18 19 19 19 20 20 20 21 21 22 22 22 21 21 21 21 22 24 25 25 25 26 26 26 26 26 26 25 25 24 23 23 22 22 21 21 20 20 20 19 19 19
8 8 7 7 7 7 7 7 7 7 7 7 7 7 7 7 7 7 7 8 8 8 8 8 8 8 8 8 8 8 8 7 9 13 17 19 19 20 20 20 20 19 19 18 18 18 19 20 19 19 20 21 21 21 22 22 22 22 22 21 21 22 23 24 25 25 26 26 26 26 26 27 27 26 26 24 22 23 22 22 22 21 21 20 20 19 19 19
7 7 7 7 7 7 7 7 7 7 7 7 7 7 7 7 7 7 7 8 7 8 8 8 8 7 8 8 8 8 7 9 14 18 17 17 18 19 19 20 20 20 19 18 18 18 19 19 19 20 20 20 21 21 22 22 22 22 22 21 22 23 23 25 25 26 26 26 26 26 27 27 27 26 25 24 23 23 22 22 22 21 21 20 20 19 19 19
7 7 7 7 7 7 7 7 7 7 7 7 7 7 7 7 7 7 7 7 7 8 7 7 8 7 8 7 8 7 8 14 18 17 16 17 18 18 19 21 20 20 19 18 18 18 19 19 19 20 20 20 20 21 21 22 23 22 22 22 23 24 24 25 26 26 26 25 26 26 27 27 27 25 24 25 26 24 23 23 22 21 20 20 20 20 19 19
7 7 7 7 7 7 7 7 7 7 7 7 7 7 7 7 7 7 7 7 7 7 7 7 7 7 7 7 8 7 10 17 18 15 17 17 17 19 20 21 20 19 19 18 18 19 19 19 19 20 20 20 20 21 21 22 23 22 22 23 23 24 24 25 26 26 26 25 26 26 27 27 25 25 25 25 25 24 24 23 22 21 21 20 20 20 19 19
7 7 7 7 7 7 7 7 7 7 7 7 7 7 7 7 7 7 7 7 7 7 7 7 7 7 7 7 8 7 9 14 16 16 17 17 17 18 19 20 19 19 18 17 18 19 19 19 19 20 20 20 20 21 21 22 23 22 22 23 24 24 24 24 25 26 25 26 26 26 27 27 25 25 25 24 23 23 23 23 22 21 21 21 20 20 19 19
7 7 7 7 7 7 7 7 7 7 7 7 7 7 7 7 7 7 7 7 7 7 7 7 7 7 7 7 8 7 8 12 15 16 17 17 16 16 16 18 18 18 18 17 18 19 19 19 19 20 20 21 21 21 22 22 22 22 22 23 24 24 24 25 25 25 25 26 25 25 26 25 24 25 24 23 22 23 22 22 21 21 21 21 20 20 19 19
7 7 7 7 7 6 6 6 6 6 6 6 7 7 7 7 7 7 7 7 7 7 7 7 7 7 7 7 7 8 10 13 15 16 17 17 16 16 16 15 16 18 17 17 18 18 19 20 20 20 20 21 21 21 22 22 22 23 23 23 24 24 25 25 25 25 26 26 26 26 25 24 24 24 23 22 22 22 22 22 21 21 20 20 20 20 19 19
7 7 7 7 7 6 6 6 6 6 6 6 7 6 7 7 6 6 6 7 7 7 7 7 7 7 7 7 7 8 12 14 14 16 16 16 16 16 16 16 16 17 17 17 18 18 19 19 20 21 20 21 21 21 22 22 23 24 23 24 24 24 24 24 25 26 26 26 27 26 24 24 25 25 23 22 22 22 22 22 21 21 21 20 20 20 20 19
7 7 7 7 7 6 6 6 6 6 6 6 6 6 6 6 6 7 6 7 7 7 7 7 7 7 7 7 6 8 13 15 15 15 15 15 16 16 16 17 16 16 17 17 17 18 19 19 20 21 20 21 21 22 22 23 23 24 24 24 24 24 24 24 25 26 26 27 27 26 25 24 25 25 23 22 22 22 22 22 22 21 21 20 20 20 20 19
7 7 7 7 6 6 6 6 6 6 6 6 6 6 6 6 6 6 6 7 6 7 7 7 7 6 7 7 6 9 13 15 15 14 14 14 15 16 16 16 16 16 16 16 17 19 19 19 20 20 21 21 21 22 22 23 23 23 24 23 24 24 24 25 25 26 26 27 27 26 25 24 25 24 23 22 23 22 22 22 22 21 21 20 20 20 19 18
7 7 7 7 7 7 6 6 6 6 6 6 6 6 6 6 6 6 6 6 6 7 6 7 7 7 6 6 7 9 12 14 14 13 14 14 14 16 17 16 17 16 16 16 17 18 19 19 20 20 20 20 20 22 22 22 22 23 23 23 24 23 24 25 25 25 26 27 28 26 23 23 24 23 22 23 22 22 22 22 21 21 21 20 20 19 18 18
6 7 6 6 7 7 6 6 6 6 6 6 6 6 6 6 6 6 6 6 6 6 6 6 6 7 6 6 8 10 11 12 11 11 15 15 14 16 17 17 17 17 17 17 17 18 18 19 20 19 20 20 20 21 21 22 22 23 23 23 23 22 23 25 25 25 26 26 27 26 23 22 23 22 22 23 22 22 22 21 21 20 20 20 19 19 18 18
6 6 6 6 6 6 6 6 6 6 6 6 6 6 6 6 6 6 6 6 6 6 6 6 6 6 5 6 9 11 11 10 10 14 17 15 12 14 18 17 17 17 17 17 18 18 18 19 19 19 20 21 21 20 20 21 22 22 22 21 21 21 23 25 25 25 27 26 26 26 23 22 22 22 23 23 22 22 21 21 21 20 19 19 19 18 18 18
6 6 6 6 6 6 6 6 6 6 6 6 6 6 6 6 6 6 6 6 6 6 6 6 6 6 5 8 10 11 11 10 12 15 16 14 12 14 16 16 16 18 18 19 18 18 19 19 19 19 20 20 20 20 20 20 21 21 21 21 21 21 22 24 25 25 26 27 26 26 24 22 22 23 23 23 22 22 21 21 20 20 19 19 19 18 18 18
6 6 6 6 6 6 6 6 6 6 6 6 5 5 5 6 6 6 6 6 6 6 6 6 7 6 7 9 11 12 12 12 14 14 14 15 15 15 15 15 16 17 18 19 18 18 19 19 20 20 20 20 20 20 20 19 19 20 20 20 21 21 21 22 24 24 25 26 26 26 26 24 23 23 22 21 22 22 21 21 20 20 19 19 19 18 18 18
6 6 6 6 6 6 6 6 6 6 6 6 5 5 5 6 6 6 6 6 7 6 6 7 6 7 9 10 10 12 12 13 14 14 14 15 15 15 14 15 16 17 17 18 18 18 18 19 20 19 19 19 19 19 19 19 19 19 20 21 21 21 21 22 24 25 24 26 26 25 25 24 23 23 22 21 21 22 21 21 20 20 19 19 19 18 18 18
6 6 6 6 6 6 6 6 6 6 6 6 6 5 6 6 6 5 5 6 6 6 7 7 6 9 12 11 10 12 12 13 14 15 15 15 14 14 14 15 16 16 17 18 18 18 18 19 19 18 18 18 18 19 19 20 20 20 21 21 21 21 21 22 24 25 25 25 25 25 25 24 22 22 23 21 21 21 21 21 20 19 19 19 18 18 18 18
5 6 6 6 6 6 6 6 6 6 6 6 5 5 6 6 6 6 6 6 6 7 8 7 6 9 11 11 12 12 13 14 14 14 15 15 14 13 14 15 16 16 16 17 17 18 18 18 17 18 18 19 19 19 19 21 21 21 21 21 21 21 22 23 25 25 25 25 25 24 24 24 22 22 23 21 20 20 21 20 20 19 19 19 18 18 18 18
5 5 5 5 6 6 6 6 6 6 6 5 5 4 5 5 6 7 6 6 7 7 8 8 7 8 10 12 12 12 12 12 13 14 14 15 15 15 15 15 15 15 15 17 18 18 18 17 16 18 19 20 20 19 20 21 21 21 20 21 21 21 21 23 25 25 25 25 24 23 24 24 22 22 22 21 20 20 21 20 20 19 19 18 18 18 18 18
5 5 5 5 5 6 6 6 6 6 5 5 5 4 5 6 7 7 6 6 7 8 7 8 8 8 10 11 11 11 11 11 12 14 15 15 15 15 16 15 15 15 15 17 18 17 17 17 17 19 20 20 20 20 20 21 21 20 20 20 20 20 21 23 24 24 24 25 24 23 23 22 21 21 21 21 20 20 20 19 19 19 19 18 18 18 18 18
5 5 5 5 5 5 5 6 6 5 5 5 4 4 5 7 7 7 7 6 7 8 8 7 8 8 8 9 10 11 10 10 11 13 15 15 15 15 16 15 15 15 16 16 17 16 16 17 18 19 20 20 19 20 20 20 20 20 20 20 20 21 21 22 23 24 24 24 23 23 22 20 20 20 20 19 19 19 18 17 17 18 18 18 18 18 18 18
5 5 5 5 5 5 5 5 5 5 6 5 5 5 7 7 7 7 6 6 6 8 9 9 9 8 9 10 11 11 10 11 12 13 15 15 15 16 16 15 15 15 16 16 16 16 16 18 19 20 20 20 19 19 20 20 19 19 19 19 20 21 21 22 23 24 24 22 22 23 21 19 19 20 19 18 17 17 17 16 16 17 17 18 18 18 18 18
4 4 5 5 5 5 5 5 5 5 6 5 5 7 7 7 7 6 6 6 7 8 10 10 10 10 11 11 11 11 11 11 12 13 15 16 15 16 16 16 16 15 16 16 16 16 17 18 19 19 20 20 19 19 19 19 19 19 19 20 21 21 22 23 23 23 22 21 22 23 21 20 20 19 18 17 17 17 16 17 17 17 17 18 18 18 18 18
4 4 4 5 5 5 5 5 5 5 5 5 6 7 7 6 7 7 6 6 8 9 10 11 11 11 12 11 11 12 11 11 13 14 15 16 17 17 16 17 17 16 16 17 17 17 17 19 19 19 19 19 19 19 19 19 19 19 19 20 21 21 21 22 23 22 21 21 23 24 21 20 19 19 18 17 17 17 16 17 17 17 17 18 18 18 18 18
4 4 4 4 5 5 4 5 5 5 5 6 7 7 6 7 7 7 7 7 9 11 11 11 11 13 13 12 12 13 12 13 14 14 14 15 17 18 17 16 17 17 17 17 17 17 18 18 18 18 19 19 18 19 19 20 19 19 20 21 21 21 21 22 22 22 21 21 22 23 22 20 19 20 19 18 18 17 17 17 17 17 17 18 18 18 18 18
4 4 4 4 5 4 4 5 5 5 5 7 7 6 6 6 6 7 7 9 11 13 12 11 12 14 13 13 13 13 14 14 14 14 15 16 16 17 16 16 17 17 18 18 16 17 18 18 18 18 18 18 18 19 20 20 20 20 22 22 21 21 22 22 22 21 21 21 21 21 21 20 19 19 19 18 18 18 17 18 17 17 17 17 17 17 17 17
4 4 4 4 4 4 4 5 5 5 6 6 5 5 6 6 7 7 8 10 13 14 14 14 14 14 13 12 13 14 14 15 15 15 15 16 16 17 16 16 17 17 18 18 16 17 19 19 19 18 18 18 19 21 21 20 20 21 23 23 22 21 22 22 22 21 21 21 20 21 21 20 19 19 19 19 19 18 18 18 18 17 17 17 17 17 17 16
4 3 4 4 4 4 4 4 5 5 6 5 5 6 6 6 7 7 7 10 13 14 15 14 14 13 12 11 12 13 14 15 16 16 15 16 17 17 17 18 18 17 17 17 17 18 19 19 20 19 19 20 20 21 21 20 21 22 23 22 22 21 22 22 21 21 21 20 20 21 21 21 20 19 19 19 19 19 18 18 18 18 17 17 17 16 16 16
3 4 4 4 4 4 4 4 5 5 5 5 5 6 6 7 7 7 9 12 13 13 14 14 13 13 12 11 12 12 13 14 15 16 15 16 16 16 17 17 17 17 16 16 17 17 18 18 19 20 20 21 21 21 21 21 22 23 22 22 21 21 21 21 20 20 20 20 20 21 20 21 20 19 19 19 19 19 18 18 18 17 17 17 16 16 15 15
3 4 4 4 4 4 5 5 5 5 5 5 5 5 6 7 7 7 9 12 12 11 12 13 13 13 12 12 12 12 13 14 15 16 15 15 15 15 16 16 16 15 14 15 16 16 17 18 19 20 21 21 21 20 20 20 21 22 21 21 20 20 20 20 20 20 20 20 20 20 21 21 20 19 19 19 19 19 19 18 18 17 17 16 16 15 15 15
3 4 4 4 4 4 4 5 5 5 5 5 5 5 6 7 8 8 9 10 11 11 12 12 12 12 13 13 13 13 14 14 14 15 16 16 15 15 16 16 16 16 14 15 15 15 16 17 18 19 20 21 21 19 19 19 20 20 20 20 19 19 19 19 19 19 20 20 20 19 21 20 19 18 19 20 20 19 18 17 17 17 16 16 15 15 15 14
4 4 4 4 4 4 4 4 5 5 5 5 5 5 6 7 8 10 10 10 11 11 11 11 11 12 13 13 13 14 13 14 15 15 16 15 15 14 15 16 16 17 16 15 15 15 15 16 18 18 19 21 21 20 20 20 20 20 21 20 20 20 19 19 19 19 20 20 19 19 20 19 19 18 18 19 19 17 16 16 16 16 15 15 15 14 14 14
4 4 4 4 4 4 4 4 4 5 4 5 5 6 7 8 9 9 9 10 10 10 10 11 11 12 13 13 14 15 14 14 15 15 15 15 14 14 15 15 16 17 17 15 15 16 15 16 18 19 20 21 21 21 22 21 20 20 21 21 20 20 20 20 19 19 20 20 19 19 18 17 18 17 17 18 17 16 16 16 16 15 15 15 15 14 14 14
4 4 4 4 4 4 4 4 4 4 4 4 5 6 7 9 9 9 9 10 9 9 9 10 12 12 13 13 14 15 15 15 15 15 15 15 15 15 15 16 16 17 17 16 15 16 16 16 19 20 20 21 21 21 22 22 21 20 20 20 20 22 22 20 19 18 19 21 19 17 17 17 17 17 17 17 17 16 16 16 15 15 15 15 14 14 14 14
3 4 4 4 5 5 5 5 4 4 4 4 5 7 8 9 9 9 10 9 8 9 9 9 11 12 12 13 14 14 15 15 15 14 15 15 16 16 16 17 17 17 18 18 17 17 16 17 19 20 20 20 21 22 22 22 22 20 20 21 22 23 22 21 20 19 20 21 17 15 17 18 18 18 17 16 16 16 15 15 15 15 14 14 14 14 14 14
3 3 4 4 5 5 5 5 4 4 4 5 6 7 8 9 9 10 10 9 8 8 8 9 11 11 11 11 13 14 14 14 14 14 15 15 16 16 17 17 18 18 18 19 18 17 17 18 19 20 20 21 21 21 21 22 22 22 21 22 22 21 20 20 20 20 20 19 16 15 17 17 18 18 17 16 15 15 15 15 15 15 14 14 14 14 14 14
3 3 4 5 5 5 5 5 4 4 4 5 6 7 8 9 9 11 11 9 8 8 8 9 10 10 10 11 11 13 14 14 14 14 15 15 16 17 17 18 18 18 19 19 18 18 18 17 18 19 20 21 21 20 19 20 21 22 22 22 23 22 21 20 20 20 20 17 16 17 17 17 18 18 17 16 16 15 15 15 15 15 14 14 14 14 13 14
3 3 4 5 5 5 5 5 4 4 5 6 6 7 8 9 10 11 11 10 9 8 8 9 10 10 10 11 11 12 13 14 14 15 15 15 16 17 17 18 18 18 18 19 18 18 18 17 18 19 20 20 20 20 20 20 20 21 21 21 22 22 21 21 20 19 19 18 17 17 17 18 18 18 17 17 16 16 16 15 15 14 14 14 14 13 13 13
3 3 4 5 5 5 5 4 4 5 5 6 6 7 8 9 10 10 10 11 10 10 10 10 10 10 10 10 11 11 13 14 14 15 16 15 16 17 17 18 19 18 18 18 18 18 18 17 18 18 19 19 20 21 21 21 20 20 21 21 21 21 21 21 20 18 18 18 18 17 17 18 18 18 18 17 16 16 16 15 14 14 14 14 13 14 13 14
3 4 4 4 5 5 5 4 5 5 5 6 7 8 9 9 9 9 10 11 10 10 11 10 10 10 10 10 10 10 11 13 14 15 16 16 16 17 18 19 19 19 18 17 17 18 19 18 18 18 19 19 20 21 21 22 22 21 21 21 21 21 21 21 20 19 18 18 18 17 18 18 16 16 17 17 16 16 15 15 14 13 13 13 13 14 14 13
3 4 5 5 5 6 5 5 5 6 6 6 7 8 9 9 9 9 10 10 9 10 11 10 10 10 10 10 10 11 12 14 15 15 16 17 17 18 18 19 19 19 19 18 18 19 19 19 18 18 19 20 21 21 21 21 22 21 21 22 21 22 22 21 21 20 19 18 18 18 18 17 16 16 16 16 16 16 15 14 14 13 13 13 13 13 13 13
3 3 4 5 5 5 5 5 5 5 6 6 7 7 8 9 9 9 9 9 9 10 10 9 10 11 10 11 11 11 12 13 15 15 16 16 17 18 18 19 19 18 19 19 18 19 19 18 17 17 17 19 20 20 20 20 21 21 21 21 22 23 22 21 20 20 20 19 19 20 19 16 16 16 15 15 15 14 14 14 13 13 13 13 13 13 13 13
3 4 4 4 5 5 5 5 6 6 6 6 6 7 8 8 9 9 9 9 9 9 9 10 11 11 11 11 11 11 12 13 14 15 16 16 17 18 17 18 18 18 19 20 19 19 19 18 18 17 16 17 18 19 19 20 21 22 22 22 22 22 22 21 20 21 20 19 18 20 18 16 15 15 15 15 14 14 13 13 13 13 13 13 13 12 13 13
4 4 4 4 5 5 5 5 5 6 6 6 6 7 7 8 9 10 10 9 9 10 10 10 12 12 11 11 11 11 13 14 14 14 15 15 16 18 18 18 18 19 20 20 20 19 18 18 18 18 17 17 18 19 19 20 21 21 22 22 22 22 22 21 21 21 20 18 18 18 16 16 16 15 15 14 14 13 13 13 13 13 13 13 12 12 13 13
4 4 5 5 5 5 5 5 5 6 7 7 7 7 8 8 8 9 10 10 10 11 11 11 12 12 11 10 11 12 13 13 14 14 14 15 16 17 17 18 18 18 19 20 20 19 19 18 18 18 18 18 18 18 18 19 20 21 21 21 21 22 22 21 21 21 19 19 18 17 16 16 16 15 15 14 14 13 13 13 13 13 12 12 12 12 12 12
4 4 4 5 5 5 5 5 6 6 6 6 7 7 8 8 8 8 10 11 12 12 12 12 12 12 12 12 13 13 13 13 14 14 15 15 15 17 18 18 17 17 18 20 20 20 19 18 17 17 18 18 17 17 18 18 18 18 19 20 21 21 22 23 22 20 19 21 20 17 16 17 15 15 15 14 14 13 13 13 13 12 12 12 12 12 12 12
4 4 4 5 6 6 6 6 7 6 6 6 7 7 7 8 8 9 10 11 11 12 12 12 12 12 13 13 13 13 13 14 14 14 15 15 14 15 17 17 17 16 17 19 19 20 20 18 17 17 18 18 18 17 17 17 16 16 15 16 18 19 22 23 21 18 19 20 19 16 16 16 15 15 15 14 14 13 13 13 12 12 12 12 12 12 12 12
4 4 4 5 5 5 6 7 7 7 7 7 7 8 8 8 8 9 10 10 11 12 13 12 12 13 13 13 13 14 14 14 14 14 14 14 14 15 15 15 16 16 17 18 19 20 20 17 16 17 17 18 18 17 16 16 16 15 14 14 15 17 19 20 19 17 18 17 16 16 16 15 14 15 14 13 13 13 12 12 12 12 12 12 12 12 12 12
4 4 4 4 5 6 6 6 7 7 7 7 7 8 8 9 9 9 10 11 11 11 12 12 11 12 13 13 13 14 14 14 14 14 14 14 15 15 15 14 15 15 16 17 18 20 19 16 15 17 17 17 18 16 15 16 17 17 16 14 14 16 17 17 17 17 17 16 15 15 15 14 14 13 13 13 13 12 12 12 12 12 12 12 11 11 11 11
4 5 5 4 6 7 7 7 7 7 8 8 8 9 9 9 9 9 9 11 11 11 12 12 11 11 12 12 13 14 14 14 14 14 14 15 15 15 15 15 15 14 15 16 17 18 18 16 16 17 16 16 17 15 15 17 19 19 16 13 12 14 15 15 16 16 16 16 15 15 16 14 13 13 12 12 12 12 12 12 12 12 11 11 11 11 11 11
Height
814 814 813 812 811 810 809 808 807 805 804 803 802 800 799 798 797 796 795 794 793 792 792 791 790 788 787 786 784 782 780 776 772 773 770 759 757 760 760 760 761 761 762 762 762 763 764 765 765 766 767 768 769 770 770 770 771 775 783 790 791 788 783 776 770 767 765 761 758 754 752 756 756 749 742 743 750 753 757 760 758 756 755 757 761 764 769 773
813 812 811 811 810 809 808 807 806 805 804 802 801 800 798 798 797 795 794 794 793 792 791 790 789 788 787 785 783 782 779 775 772 769 761 754 756 758 758 759 760 760 760 761 762 762 764 765 765 766 767 768 770 769 770 769 770 776 783 788 786 782 775 767 763 761 760 760 758 753 751 753 754 751 745 751 761 757 760 765 763 763 763 762 764 768 771 773
812 811 810 809 809 808 807 806 805 804 803 802 800 799 798 797 796 794 794 793 792 791 790 789 788 787 786 784 783 781 778 775 770 762 755 754 755 753 755 757 758 759 760 760 761 762 764 764 764 766 767 769 770 769 770 770 770 774 779 785 781 774 770 763 761 759 758 758 758 755 750 751 750 748 747 754 762 761 762 764 764 767 766 766 768 769 772 775
811 810 809 808 807 806 806 805 804 803 802 801 799 798 797 796 795 794 793 792 791 790 789 789 788 786 785 784 782 780 778 774 763 754 753 753 751 749 751 753 756 758 758 760 761 762 763 764 764 765 768 770 770 769 771 769 770 772 774 778 772 769 768 761 757 756 755 756 757 755 752 751 748 746 749 753 762 767 763 754 753 760 762 764 768 770 772 775
809 808 808 807 806 805 804 803 803 801 801 799 798 798 796 795 794 793 792 791 790 790 789 788 787 786 784 783 781 780 779 768 753 750 751 750 748 746 746 749 753 756 758 760 761 762 762 763 764 765 768 771 771 771 771 766 767 771 769 768 767 766 767 759 754 754 754 755 755 755 755 752 748 749 749 749 755 759 755 751 747 749 754 758 763 768 772 775
808 807 806 805 804 804 803 802 801 800 800 798 797 796 795 795 793 792 791 790 790 789 788 787 786 785 784 782 780 779 776 760 748 750 750 748 746 743 744 747 750 754 757 759 760 761 762 763 765 767 768 770 772 771 769 765 765 771 767 764 765 764 764 758 753 752 753 756 756 755 753 750 752 754 749 748 751 748 746 750 751 750 752 755 759 765 770 774
806 806 805 804 803 802 801 801 800 799 798 797 796 795 794 793 792 792 790 789 789 788 788 787 786 785 783 782 778 778 777 759 747 749 748 747 746 742 743 745 748 753 755 758 759 760 761 763 766 767 769 770 772 770 767 765 765 769 768 764 763 762 761 758 753 751 752 755 754 752 751 751 756 755 751 753 753 747 746 750 754 756 757 760 763 766 770 774
805 804 803 803 802 801 800 799 798 798 796 795 795 794 793 791 791 790 789 789 788 788 787 786 786 785 783 782 779 780 776 757 746 748 747 747 747 745 745 745 748 751 753 756 757 759 760 763 765 765 769 770 768 768 766 767 767 767 767 764 761 760 758 755 753 751 750 750 750 752 754 754 755 752 754 758 755 750 749 752 756 760 762 765 768 770 773 776
803 802 802 801 800 799 799 798 797 796 795 794 793 792 791 790 789 789 789 788 787 787 786 786 785 784 784 782 782 780 765 749 747 748 747 747 747 748 748 748 750 751 753 756 756 758 759 761 762 762 767 767 766 766 764 769 770 763 763 762 760 758 755 754 754 751 750 748 748 754 758 756 751 752 760 761 756 753 753 756 759 762 766 769 772 774 776 779
801 800 800 800 799 798 797 796 795 794 794 793 791 791 790 789 788 788 787 787 786 786 785 786 784 784 784 781 784 778 754 746 749 747 747 747 747 749 749 750 752 752 753 755 756 758 757 759 760 759 763 764 764 765 763 767 765 758 759 760 758 758 755 755 754 750 750 747 747 754 759 756 749 754 767 764 756 755 756 761 763 765 769 771 774 776 778 781
798 798 798 798 797 796 795 795 794 793 792 791 790 789 788 787 787 786 786 785 785 785 784 784 783 784 783 782 786 772 748 746 748 746 748 747 747 749 749 750 752 753 754 754 755 756 756 757 758 760 764 764 763 763 762 761 759 756 758 760 757 757 756 755 754 751 750 747 744 751 757 756 752 755 764 761 757 756 758 764 766 768 771 772 775 777 779 782
796 796 796 796 795 794 794 793 792 792 791 790 789 787 787 786 785 785 784 784 784 784 784 783 783 783 782 783 778 758 745 746 747 746 748 747 748 748 749 751 751 753 754 755 755 754 756 757 758 761 762 761 763 764 761 757 757 757 758 762 759 757 757 754 752 750 750 747 741 748 761 762 758 759 760 757 758 759 761 766 768 770 772 773 776 777 780 782
794 794 794 794 793 793 793 792 791 790 789 788 787 786 785 784 783 783 782 783 782 782 782 782 782 781 783 778 761 748 748 748 746 746 746 747 748 746 748 750 750 752 753 754 754 754 756 757 759 761 759 762 764 761 758 755 758 758 758 762 762 763 761 752 750 750 749 746 738 749 769 771 764 762 759 756 758 762 766 769 769 772 774 775 776 778 781 782
793 792 792 792 791 791 791 790 789 788 788 787 786 785 783 782 782 781 781 781 780 781 781 781 781 780 781 771 751 748 751 748 747 745 743 746 746 745 746 748 749 750 751 752 752 753 756 757 759 760 759 761 762 759 760 760 759 760 761 764 767 773 765 750 749 751 750 746 738 749 769 773 768 764 759 757 758 761 768 771 771 774 776 777 778 779 782 783
791 790 790 789 789 789 789 788 788 787 786 785 784 783 781 781 780 779 780 779 779 779 778 779 779 779 780 768 750 747 748 747 746 741 741 745 745 745 744 745 748 748 750 750 750 752 755 757 759 761 761 759 760 764 767 766 762 762 768 772 773 774 766 752 749 749 750 747 742 750 766 774 771 765 760 759 760 761 768 772 773 776 778 779 780 781 783 784
789 788 788 787 787 787 787 786 786 785 784 783 782 781 780 779 777 777 777 777 778 778 778 779 776 778 779 763 748 745 746 745 742 738 741 743 744 744 743 745 746 747 748 747 748 751 753 756 757 758 760 760 763 768 771 773 771 768 772 776 774 772 769 759 751 746 746 747 748 751 762 773 771 764 761 760 762 764 768 772 774 777 778 779 781 782 783 784
787 787 786 785 785 785 785 784 784 783 782 781 780 778 777 775 774 774 774 775 776 775 777 776 775 779 771 753 745 744 743 741 739 739 739 740 742 742 743 746 746 746 746 745 747 750 753 755 755 756 758 761 764 767 775 780 778 775 774 774 773 771 771 765 754 748 746 748 752 752 756 765 766 763 763 765 766 767 769 773 775 776 778 779 781 782 783 783
786 785 784 784 783 783 783 783 782 782 781 780 778 776 774 771 771 771 771 773 773 775 776 774 777 776 758 746 747 743 740 740 739 739 738 739 740 741 744 746 746 747 747 747 747 749 754 753 754 759 760 761 763 766 775 776 774 777 774 771 772 770 770 766 755 749 749 749 753 756 759 763 765 763 764 767 768 768 769 770 773 776 778 780 782 783 783 783
784 783 782 782 781 781 780 781 780 780 780 778 776 774 769 767 767 768 769 771 772 773 771 768 771 763 744 741 745 741 740 740 738 737 737 737 739 741 744 745 746 748 749 750 750 749 752 755 757 760 758 759 760 762 768 766 764 769 768 767 769 768 767 764 754 747 748 753 756 759 761 764 768 766 765 767 766 767 769 769 772 776 778 780 783 783 783 784
783 782 781 780 779 779 778 778 779 779 778 777 776 773 769 768 768 767 768 769 766 762 759 759 761 754 742 740 741 740 739 738 737 736 735 736 738 741 743 745 747 750 751 751 750 748 750 758 759 754 753 754 756 759 761 760 760 763 765 766 766 767 766 759 752 746 746 753 758 759 761 764 768 767 764 767 770 772 772 771 774 775 777 780 782 783 783 784
781 780 779 778 777 777 776 777 777 777 777 776 776 776 775 773 771 769 768 765 760 756 755 754 755 752 743 739 740 742 742 739 737 735 735 736 737 740 742 743 747 751 751 749 748 747 749 757 755 750 750 751 753 756 757 758 759 763 766 767 768 770 766 757 751 748 746 752 759 761 763 765 768 767 764 767 773 774 771 771 773 774 778 781 782 783 783 784
779 778 777 776 776 775 775 775 775 775 775 774 775 777 775 771 770 769 768 765 757 752 752 751 752 750 741 738 742 744 747 745 739 733 732 734 736 738 739 742 747 749 750 748 748 750 753 753 749 747 747 747 752 754 755 758 759 763 766 769 771 770 766 759 751 749 748 753 761 764 766 771 771 768 766 766 768 769 769 771 772 773 778 782 783 783 783 784
777 776 775 774 774 774 773 773 773 773 773 773 774 774 771 768 768 768 768 768 756 744 744 746 747 746 739 738 740 743 747 746 741 733 730 733 735 735 737 740 745 747 748 747 747 751 755 751 745 744 744 747 754 754 754 757 760 763 766 771 773 768 767 764 755 751 750 753 760 763 770 779 777 773 773 772 771 771 773 776 776 775 777 780 782 783 783 784
775 774 774 773 773 772 772 772 772 771 771 771 770 768 768 767 767 767 767 768 757 741 734 734 737 737 732 732 734 738 741 740 738 732 727 731 733 734 735 737 743 746 744 744 745 749 750 744 740 742 743 746 753 756 756 759 763 764 765 769 770 767 766 763 757 754 753 759 760 762 777 787 783 780 781 779 780 780 779 780 783 784 782 781 782 784 785 785
772 772 771 771 771 770 771 771 769 769 769 769 767 766 767 766 765 767 768 766 756 738 729 728 730 728 723 728 732 734 737 735 732 728 725 728 730 731 733 733 738 743 742 744 747 749 747 740 737 742 745 746 751 756 756 758 764 766 764 764 764 765 764 761 759 758 763 770 762 759 782 795 786 784 786 784 783 786 787 785 786 791 791 786 785 786 787 787
770 770 769 769 769 769 770 769 767 768 767 766 765 765 766 765 763 764 766 767 752 733 725 726 725 721 719 726 728 730 737 733 724 723 724 725 726 727 732 732 733 738 741 742 746 746 743 738 737 741 745 747 751 754 753 754 763 769 762 758 760 762 764 762 761 764 772 775 761 755 776 793 792 785 785 786 785 787 791 788 787 792 796 792 790 788 787 788
767 767 767 767 767 768 768 766 766 766 766 764 763 764 764 762 763 762 764 765 747 725 722 726 722 716 714 719 720 727 733 724 717 721 721 723 724 723 730 733 732 735 735 739 747 742 737 739 741 742 744 749 751 752 750 750 762 768 756 752 760 762 764 763 762 767 772 770 764 759 767 785 793 785 780 783 786 789 789 786 787 792 795 794 793 791 789 789
765 764 765 765 765 765 765 764 765 764 764 763 762 763 762 760 762 763 762 754 730 714 716 720 717 712 713 716 717 720 721 714 717 721 717 720 723 722 730 732 732 734 730 736 747 739 733 739 742 743 746 748 746 744 745 748 758 759 748 749 757 759 761 760 762 768 769 772 774 768 766 781 791 782 777 781 785 789 789 785 788 792 792 792 791 791 791 791
763 762 763 763 762 763 763 764 763 762 762 762 762 761 760 760 760 761 762 743 716 707 710 710 712 713 715 720 720 716 714 713 715 716 715 720 721 722 728 729 729 733 730 733 742 737 732 734 735 741 745 743 740 739 741 747 753 749 744 748 753 757 758 758 764 768 772 780 779 768 764 776 788 783 777 781 782 785 786 785 787 788 788 789 789 791 793 792
761 761 761 762 761 761 762 762 761 762 762 761 761 760 759 761 760 763 763 739 713 708 708 708 712 714 718 723 723 719 715 714 711 712 717 719 719 721 723 725 727 731 733 735 739 736 731 729 730 734 737 736 736 737 738 744 746 743 745 751 755 758 758 759 765 767 777 785 772 762 762 768 781 783 776 776 775 776 781 785 786 785 786 789 789 791 794 793
759 759 759 760 760 759 760 761 761 761 762 761 759 759 759 759 760 764 752 725 713 714 712 712 714 714 718 721 721 721 718 716 711 712 717 719 721 724 724 726 730 734 740 740 740 738 734 733 731 727 727 729 733 736 739 740 739 741 748 754 762 765 762 767 771 772 784 783 763 758 763 766 776 779 773 771 770 771 777 781 783 785 787 789 790 792 794 795
757 757 757 758 758 758 759 759 760 760 761 760 759 759 760 758 760 760 741 720 721 724 718 717 717 716 718 716 716 718 716 717 714 712 716 719 723 725 724 727 730 738 746 744 743 743 739 735 731 726 723 725 732 741 744 742 741 745 750 757 770 776 776 781 780 779 782 772 760 760 762 769 776 773 768 767 767 769 774 777 779 783 786 789 791 793 795 796
755 755 756 756 756 757 758 759 759 760 760 759 760 761 759 757 754 747 738 730 729 727 721 719 718 717 716 715 715 715 714 715 714 713 714 717 723 726 724 724 725 732 741 742 744 747 745 740 732 730 726 720 727 740 745 746 745 747 751 757 770 778 785 790 785 781 777 765 763 764 761 771 778 771 765 763 764 767 773 780 782 783 787 789 792 794 795 797
753 753 754 755 755 756 757 759 759 760 760 759 760 761 758 754 745 735 736 735 729 726 723 722 721 716 713 713 712 711 715 716 713 713 715 717 724 727 725 724 723 725 732 740 743 744 750 747 732 729 727 719 722 730 734 739 743 745 746 752 763 765 771 781 779 778 777 771 771 768 767 776 777 771 765 761 765 770 775 782 783 785 789 790 793 795 795 798
753 753 753 753 754 755 756 758 758 759 761 761 760 760 755 747 740 737 738 735 732 732 728 723 721 715 711 711 708 707 711 714 713 713 715 719 723 724 724 724 722 722 727 738 741 736 744 742 723 719 722 717 721 724 723 733 744 745 743 750 757 751 752 764 769 769 769 769 776 778 778 781 776 772 768 763 769 774 776 781 784 788 791 792 795 797 797 799
753 753 753 753 753 754 755 756 758 759 761 762 760 757 750 740 738 741 739 736 739 739 733 725 718 715 713 711 708 707 707 709 713 715 716 717 718 720 720 719 719 719 721 729 735 734 740 738 721 717 720 716 719 721 719 728 740 744 746 748 744 735 741 757 768 772 767 766 781 790 786 783 778 776 773 769 773 777 778 782 786 789 792 794 797 798 799 801
754 753 753 752 752 754 754 755 757 759 761 763 759 751 744 739 737 738 737 740 744 742 740 734 723 719 720 715 710 709 708 709 713 716 717 715 714 715 716 715 714 715 715 718 725 728 733 734 722 718 723 718 715 718 719 719 727 740 747 740 734 737 744 750 762 774 770 770 788 796 788 782 780 780 777 776 779 780 781 783 786 790 792 795 798 799 800 802
754 753 752 751 752 752 753 755 757 759 761 761 756 748 742 739 737 735 736 741 745 744 745 741 729 724 728 724 716 710 709 713 715 715 715 715 713 709 711 712 711 711 711 713 720 723 726 732 725 716 720 718 713 721 727 721 719 727 731 727 733 750 756 753 760 769 771 782 797 796 787 782 778 777 777 780 784 785 785 785 787 790 793 796 799 801 801 802
754 754 752 751 751 751 752 755 756 759 760 758 754 749 744 740 736 733 734 739 743 746 747 740 731 730 731 728 722 715 710 712 715 714 713 715 713 706 705 708 709 710 709 711 718 719 722 731 728 716 714 715 716 725 733 730 722 721 724 726 729 741 747 749 756 759 765 787 799 792 787 782 773 770 772 775 779 781 782 785 787 791 794 797 800 802 803 805
755 755 754 750 750 750 751 754 757 759 759 756 752 748 744 741 736 732 734 737 741 744 743 738 735 735 733 729 727 721 713 710 712 712 710 712 711 706 703 704 707 710 709 711 716 717 721 729 729 720 715 718 722 722 723 727 728 728 732 734 731 731 734 741 750 753 758 777 788 788 788 779 765 763 767 769 772 774 776 781 786 792 795 797 800 803 806 808
756 757 754 750 750 751 752 756 758 758 757 755 752 748 744 740 737 735 734 735 738 739 738 736 736 736 735 733 729 725 717 711 710 710 708 709 709 706 701 699 702 707 710 714 716 717 722 727 728 725 722 722 718 710 708 715 721 726 730 732 730 729 734 744 754 756 756 763 772 779 781 773 763 760 762 767 771 773 776 781 787 793 795 798 801 803 806 808
757 756 753 750 751 751 753 756 757 755 756 755 750 746 743 740 739 738 736 734 736 737 734 733 734 735 735 734 730 729 723 714 710 708 706 706 706 703 698 695 697 701 707 715 715 713 715 721 726 727 723 719 712 705 706 708 711 719 722 723 727 728 730 740 749 753 757 760 763 770 773 769 766 762 760 766 770 772 778 782 788 795 797 799 802 803 806 808
757 755 751 750 752 751 753 756 756 755 755 752 747 745 743 741 741 740 737 737 739 735 732 733 732 730 730 730 729 729 722 713 708 706 704 704 701 697 695 694 696 699 703 711 713 709 712 719 726 726 721 714 708 705 705 705 709 718 719 718 722 723 722 726 732 740 751 759 761 767 773 772 767 764 764 768 772 774 780 784 790 797 799 801 805 805 806 809
757 755 752 751 751 752 754 755 755 755 754 751 749 747 743 741 741 741 739 741 740 736 735 735 730 727 727 726 726 726 720 713 709 705 704 705 699 694 694 693 695 698 700 704 706 707 714 721 726 732 732 725 719 717 715 713 712 714 716 716 715 715 718 724 730 734 744 753 751 754 769 774 767 766 768 770 775 779 783 787 790 796 801 804 806 806 807 809
757 754 753 752 752 753 754 753 753 754 754 753 751 748 746 742 739 737 738 740 738 736 736 732 725 724 725 724 726 726 719 714 712 707 704 705 700 695 695 694 695 696 695 695 697 701 713 721 723 733 741 738 732 727 722 718 713 708 708 709 709 712 716 722 730 733 739 749 749 748 763 772 769 769 772 773 778 783 786 789 791 794 800 803 805 806 808 809
757 754 753 753 754 755 755 753 753 753 752 753 752 747 745 744 738 733 735 737 734 731 731 727 721 722 725 726 726 723 715 711 712 710 708 707 702 696 694 693 693 692 691 691 693 698 710 717 717 722 730 730 726 720 714 712 710 708 707 707 709 711 712 718 725 729 734 747 754 754 759 766 768 770 773 775 778 783 787 790 792 794 798 801 804 806 808 809
757 755 753 753 755 757 757 755 754 753 750 751 750 745 743 744 741 736 734 730 726 724 723 721 719 720 724 726 724 717 713 711 711 711 709 706 703 698 694 692 691 690 689 690 691 696 708 715 715 717 721 722 721 718 715 712 708 706 707 708 709 710 711 715 719 724 732 742 752 758 756 758 764 766 768 772 775 779 785 788 791 794 797 800 804 807 809 810
756 755 754 752 752 754 756 754 752 752 751 751 749 746 743 743 743 740 733 725 720 718 717 716 716 717 718 718 715 712 713 713 711 710 708 706 705 700 694 692 693 692 689 689 691 693 702 713 716 718 719 719 720 719 717 717 716 714 714 712 710 709 707 707 713 724 727 725 736 752 754 753 758 761 763 766 769 774 781 786 789 793 797 801 805 807 810 811
756 756 754 752 750 750 750 748 748 750 751 750 749 745 743 742 741 737 731 726 721 716 713 713 713 713 712 711 711 712 713 712 711 711 707 707 707 704 700 697 696 694 691 692 692 689 697 713 717 717 719 718 717 720 720 720 722 724 727 725 720 714 706 703 715 729 727 722 729 743 750 752 754 757 761 767 771 777 783 787 791 794 798 802 805 807 810 811
758 757 754 753 752 750 748 746 746 747 747 747 746 742 739 739 736 732 727 726 724 717 712 712 713 711 710 710 710 711 710 709 710 711 709 708 708 707 708 706 702 699 695 695 693 687 696 717 720 717 722 721 717 721 724 722 721 725 731 733 728 721 714 712 721 730 732 735 740 743 751 759 760 760 765 771 775 780 785 790 793 796 798 801 805 808 810 813
758 756 755 755 751 747 747 746 745 746 745 745 744 739 736 734 732 729 726 722 720 717 713 714 716 714 711 712 711 709 708 708 709 708 708 708 707 704 706 706 704 703 700 698 696 689 697 719 724 720 727 728 721 726 731 724 718 719 727 735 734 729 724 723 726 729 731 739 749 753 755 759 761 763 769 774 777 781 786 789 793 796 799 801 804 808 811 814
757 754 753 755 751 744 743 744 744 743 741 738 737 735 733 731 728 729 728 719 714 715 714 715 717 716 714 714 711 706 706 706 706 705 705 705 703 701 702 703 703 706 705 702 700 696 701 717 725 725 732 731 723 730 733 721 712 717 730 742 742 736 732 730 729 730 731 735 744 748 746 750 757 761 768 775 778 781 784 787 791 796 800 803 805 808 811 815
Wind_Speed
12 12 13 13 13 13 13 14 14 14 15 15 15 15 15 15 16 16 15 15 16 15 15 16 16 16 17 17 19 20 24 26 26 20 12 21 25 19 15 11 8 10 11 8 7 5 2 1 3 3 5 4 2 2 2 3 2 2 3 2 4 4 4 5 6 5 3 5 7 10 9 6 5 1 4 7 9 9 9 6 7 9 9 14 19 27 30 29
12 12 13 13 13 13 14 14 14 15 15 15 15 15 15 15 16 16 16 15 15 15 15 15 16 16 17 17 19 20 24 25 22 18 22 27 24 22 23 18 13 11 10 8 8 6 4 1 4 3 4 2 1 2 3 2 3 3 3 2 5 4 5 5 5 4 3 6 8 11 9 6 3 3 3 5 6 8 11 7 9 12 12 16 20 25 27 29
12 12 13 13 13 13 14 14 14 15 15 15 16 15 15 16 16 16 15 15 14 15 15 15 16 16 17 18 18 21 23 20 12 12 15 16 17 23 24 21 19 17 15 11 8 7 7 2 4 4 3 1 1 2 2 2 3 3 3 3 5 5 5 6 6 7 6 6 7 9 9 7 4 4 2 7 8 6 10 10 11 13 13 15 15 19 23 24
13 13 13 13 13 14 14 14 14 15 15 15 16 16 16 16 16 16 15 15 14 14 14 15 15 16 17 18 18 21 18 10 4 3 8 13 12 16 21 24 22 21 19 14 7 7 9 2 1 4 3 2 2 1 2 3 3 3 4 5 5 4 5 8 8 9 7 3 3 7 8 8 6 3 5 12 10 2 7 12 17 17 16 17 15 15 18 19
13 13 13 13 13 14 15 15 15 15 15 16 16 16 16 16 16 16 15 14 14 13 14 14 15 16 17 18 19 20 10 2 1 4 13 16 14 11 17 25 25 24 20 14 8 6 8 3 2 3 3 2 1 1 3 5 3 2 5 5 4 4 5 7 7 8 4 1 4 7 7 6 5 2 8 12 9 5 6 9 16 22 20 20 18 16 15 15
14 14 13 14 14 14 15 15 16 15 15 16 16 17 16 16 15 15 14 13 13 13 14 14 14 15 16 19 19 12 3 2 1 6 13 18 16 8 14 23 25 26 20 14 10 7 6 3 3 2 3 2 3 4 4 3 4 3 5 3 5 6 6 6 6 7 2 3 6 6 4 3 1 4 4 2 2 3 7 6 10 17 19 19 18 16 15 14
14 14 13 14 14 14 15 15 16 16 16 16 16 17 16 16 15 15 15 13 12 13 13 13 14 14 16 19 14 3 2 6 5 3 11 17 19 10 6 18 24 25 20 14 10 7 5 5 4 3 4 2 4 5 5 2 3 5 5 2 5 7 7 7 8 9 5 6 8 4 3 4 1 5 1 5 3 7 12 12 12 14 15 16 14 14 14 13
14 14 14 14 14 15 15 16 16 16 17 17 17 17 17 16 15 15 15 13 12 12 13 13 13 13 15 15 8 2 3 9 8 4 8 12 18 17 7 8 19 22 19 17 13 7 5 7 6 3 3 3 4 3 4 1 2 6 5 3 4 5 7 8 9 10 9 9 5 1 1 1 2 3 5 4 5 10 13 14 15 15 13 12 11 13 12 10
14 14 14 14 14 15 15 16 17 17 17 17 17 17 17 16 14 15 15 14 12 12 12 12 12 12 12 9 3 3 7 11 11 9 9 12 14 14 12 5 13 20 17 15 13 9 5 6 7 5 4 4 4 3 3 3 4 6 5 4 6 7 8 7 8 9 8 6 0 4 3 5 5 6 6 3 7 11 14 15 14 15 13 11 10 10 10 10
15 15 14 14 15 15 15 16 17 17 17 17 17 17 17 16 15 15 14 14 12 12 13 11 11 11 10 6 1 3 7 9 13 15 12 14 14 12 10 8 3 11 13 11 11 10 7 6 5 3 2 2 3 4 4 5 4 4 4 6 8 9 8 4 6 9 6 5 3 5 5 7 3 4 3 1 8 13 14 14 13 14 13 12 10 9 9 10
16 15 14 14 15 15 15 16 17 17 18 17 17 17 18 17 16 16 14 13 13 13 12 11 11 9 7 4 2 7 6 2 6 10 13 16 18 16 11 7 5 4 6 8 11 14 13 8 3 2 1 2 3 3 3 4 3 3 3 5 8 7 7 4 6 8 4 5 4 8 5 3 2 3 7 7 10 13 16 15 12 12 11 12 12 10 8 9
16 15 14 14 14 15 15 16 17 17 17 17 17 17 17 17 17 16 15 14 13 13 12 12 11 8 8 6 10 18 11 6 11 18 22 21 21 18 15 13 9 8 7 5 9 17 19 11 3 1 2 1 1 1 3 3 3 4 3 3 8 6 6 6 6 6 3 6 2 9 3 3 3 4 11 11 11 11 14 14 12 11 10 12 11 9 8 9
17 16 15 14 14 14 15 16 17 17 17 17 17 18 17 17 17 16 15 15 14 14 13 13 11 10 9 5 17 30 23 22 26 30 29 23 22 21 16 15 13 11 10 10 12 16 18 13 7 4 2 1 1 2 2 3 3 4 1 2 4 4 6 6 4 4 5 6 2 8 2 5 4 5 12 12 13 13 12 12 11 10 9 10 9 8 8 9
18 17 15 15 15 14 15 16 17 17 17 17 17 18 18 18 17 17 16 16 15 13 12 11 10 9 7 8 23 31 24 24 29 30 27 22 21 21 19 16 14 13 12 14 17 16 14 14 10 4 3 1 4 5 6 4 2 2 1 1 1 1 5 7 3 6 6 5 0 7 3 5 3 7 12 11 14 16 13 11 11 9 7 7 7 8 8 7
18 18 17 16 15 15 15 15 16 16 17 18 19 19 20 20 19 18 17 16 14 12 12 11 9 6 4 11 21 18 9 11 21 26 24 22 18 15 16 13 9 9 9 13 16 14 12 15 9 3 3 3 3 3 4 3 3 1 1 3 2 3 5 8 3 8 8 3 2 6 3 3 4 8 11 10 11 14 14 12 11 10 9 7 7 7 7 6
18 18 18 17 16 15 15 15 15 16 17 18 20 21 22 22 21 20 19 17 15 12 9 8 7 6 3 6 9 7 4 8 15 19 17 18 17 14 15 10 9 10 9 11 12 11 11 12 5 3 3 3 3 2 2 2 4 2 2 3 1 3 3 5 3 6 9 3 2 2 4 3 4 7 10 10 11 13 14 12 11 10 10 9 7 7 7 7
18 19 19 18 17 16 16 15 15 16 17 18 20 22 24 24 23 22 20 16 13 10 8 6 4 5 7 9 8 6 5 8 12 13 11 12 17 18 13 5 6 8 9 8 7 8 7 8 3 3 4 3 4 5 1 5 5 2 0 3 2 3 3 2 4 5 4 5 2 1 3 2 5 10 10 9 10 13 14 13 12 9 8 8 7 7 8 8
19 19 19 19 18 17 16 16 15 15 17 19 20 24 29 26 22 20 18 11 6 5 7 8 5 2 6 8 7 6 5 7 9 9 10 11 14 18 11 4 2 4 6 4 4 6 4 4 3 3 3 5 5 6 6 7 5 3 2 3 3 3 3 4 4 4 4 4 4 4 1 1 6 12 11 10 12 13 14 14 12 10 10 10 8 8 9 10
20 19 19 19 19 18 17 15 15 15 16 19 21 27 27 17 10 9 9 6 4 2 2 5 7 2 4 5 5 7 10 11 11 9 9 11 11 13 11 5 0 2 1 1 3 6 5 2 3 5 7 8 8 8 7 5 7 8 6 4 4 3 4 4 5 5 5 5 4 7 4 3 8 12 11 13 13 12 14 14 11 10 11 10 8 9 9 9
21 20 19 19 19 19 18 16 15 14 16 19 20 21 15 5 1 0 3 6 6 6 3 5 10 6 8 5 1 6 12 11 7 6 7 11 12 9 6 3 3 2 3 4 4 4 5 4 7 8 8 7 7 8 7 6 5 6 5 4 5 4 4 4 5 5 4 6 4 6 6 6 11 12 11 11 9 9 13 14 11 10 11 10 9 10 10 8
22 21 19 18 19 19 19 17 14 13 15 17 15 10 4 2 2 1 0 5 10 13 11 9 13 12 14 12 6 8 10 7 5 7 10 10 13 10 4 4 5 4 4 4 4 2 5 8 9 7 7 8 8 9 9 8 6 3 4 4 3 4 4 6 5 4 3 4 2 5 7 4 8 11 11 13 12 12 13 13 14 14 10 9 11 11 10 8
22 22 20 18 18 18 17 16 14 12 14 14 11 4 6 7 5 3 2 4 9 14 16 14 14 14 19 22 16 7 4 5 8 10 7 7 10 8 5 6 6 5 4 4 3 4 7 8 6 7 7 8 7 8 10 9 8 5 4 3 3 4 3 6 6 3 2 3 1 5 7 1 2 6 9 12 14 11 7 5 8 14 13 10 12 11 11 10
22 22 20 19 18 17 16 15 12 13 15 14 9 7 7 6 3 4 3 4 9 10 12 14 13 13 17 18 15 9 5 5 6 8 5 8 6 6 7 8 7 6 6 8 7 8 7 5 7 9 7 8 6 7 10 8 7 5 5 4 3 4 2 3 5 4 2 3 3 7 6 3 2 4 3 2 3 3 5 3 2 3 11 13 11 10 11 12
22 21 20 19 18 17 15 13 12 15 15 15 15 14 10 10 9 9 4 2 7 7 10 16 13 11 15 12 10 13 7 6 6 6 6 8 5 4 6 7 8 7 8 10 9 7 4 3 8 9 8 9 7 6 9 7 5 5 5 5 3 3 4 3 3 3 3 3 5 8 6 4 2 2 2 4 5 6 6 7 3 6 2 10 10 8 9 10
21 20 19 18 17 15 12 10 12 14 12 11 14 13 9 12 15 11 3 1 5 4 5 11 9 8 11 8 10 12 6 5 7 7 6 8 7 5 4 5 6 8 10 8 7 5 4 3 8 11 9 9 8 7 8 8 5 5 5 7 6 5 5 3 3 4 5 4 1 5 4 3 3 1 3 3 5 5 5 7 8 2 4 6 9 8 8 8
20 19 18 17 16 14 8 5 7 7 5 7 9 9 10 15 15 6 4 2 4 3 2 4 5 7 8 8 10 9 3 4 10 13 10 8 9 6 4 3 3 6 8 6 3 3 4 4 7 11 10 9 9 7 7 9 6 4 5 9 8 6 5 2 2 3 3 2 4 2 5 3 3 3 4 6 7 10 6 7 11 7 5 6 7 6 7 8
19 18 17 15 15 12 6 3 4 4 3 6 8 11 13 17 9 6 4 3 3 2 3 2 3 8 9 10 13 10 3 4 7 11 12 10 8 6 6 4 3 4 5 5 3 2 6 7 5 9 10 9 10 7 7 9 7 3 5 10 9 6 6 4 1 0 2 3 5 2 4 3 2 5 6 9 10 10 10 10 11 10 7 7 5 4 6 7
18 17 16 15 15 13 11 6 3 3 6 10 14 15 16 16 4 7 2 2 2 1 3 2 4 8 6 8 14 9 4 3 4 6 11 13 10 5 6 5 5 5 5 6 6 2 7 10 8 8 9 9 8 6 7 10 6 4 6 10 8 8 7 5 4 3 1 0 5 4 3 3 3 5 6 9 11 10 12 12 11 12 10 8 7 5 7 7
17 16 15 14 14 14 14 11 7 8 12 14 16 16 17 12 1 4 1 0 2 0 3 2 3 5 5 6 9 7 3 1 2 6 9 11 10 4 4 5 6 5 5 5 6 3 4 10 10 8 8 7 6 5 8 10 5 4 7 8 5 6 6 6 5 3 2 1 6 8 6 4 3 4 8 9 9 11 12 9 9 12 13 9 8 9 8 8
16 15 14 13 12 10 10 12 14 14 12 13 15 17 13 4 3 2 0 1 1 1 2 1 2 5 8 8 6 6 4 2 1 5 7 4 6 4 2 5 5 3 4 1 4 5 3 4 8 7 5 4 6 5 7 10 7 5 7 6 3 3 3 3 2 3 3 3 8 10 9 6 3 4 7 6 6 12 12 8 7 11 13 9 8 10 10 8
14 14 13 11 10 10 7 6 9 7 8 12 15 12 5 1 1 2 2 1 2 2 3 2 1 6 10 9 5 5 5 2 2 5 7 4 5 5 3 5 4 3 4 3 4 7 7 3 5 4 5 6 6 6 5 9 8 5 6 4 3 0 1 3 2 2 3 7 8 9 9 6 4 5 6 4 5 12 13 10 12 13 12 9 8 9 9 8
13 13 12 12 12 12 8 5 5 2 10 13 11 6 1 1 1 3 3 4 2 2 3 1 1 3 6 4 4 7 5 1 2 3 7 6 5 6 5 6 5 5 7 6 4 5 7 6 3 1 6 9 8 5 4 6 8 6 5 6 5 2 1 2 2 1 5 6 5 7 9 4 4 4 7 9 10 13 12 9 13 15 13 11 10 9 8 7
12 11 10 12 12 12 13 10 7 7 11 11 6 2 2 2 2 4 4 3 2 2 4 2 5 4 5 4 3 6 5 2 3 2 4 6 6 6 6 6 7 6 5 5 5 5 6 6 6 5 5 8 10 7 6 6 8 9 6 6 6 5 4 6 5 2 4 5 4 3 8 4 2 3 5 11 11 11 10 7 8 11 12 12 11 9 9 8
8 8 9 10 10 12 15 13 10 7 8 7 2 1 2 3 2 1 1 2 3 4 4 4 6 6 4 6 3 5 4 1 3 4 3 5 7 7 7 7 8 6 4 5 5 6 8 6 7 9 4 7 11 9 6 5 5 7 5 6 5 4 5 6 5 2 3 3 4 2 5 3 2 2 2 7 9 9 11 9 7 8 9 10 10 9 10 8
4 4 6 7 8 11 13 12 9 4 4 3 0 2 3 4 1 1 1 2 3 4 8 8 4 2 1 3 3 4 4 2 3 4 3 5 6 7 7 7 8 6 5 6 4 4 10 7 4 7 5 6 10 7 6 6 4 4 4 5 5 5 5 3 4 4 4 3 2 1 1 1 1 1 2 8 11 11 12 11 11 10 8 9 9 8 9 8
3 2 3 6 8 10 10 10 7 5 2 1 2 3 2 2 2 1 2 3 3 5 9 9 3 2 2 1 2 4 4 2 3 3 1 4 5 6 8 5 6 8 5 6 3 3 8 5 2 5 6 8 8 7 8 7 5 4 4 6 5 4 6 2 2 2 4 4 1 1 1 0 1 1 3 10 13 12 11 11 12 11 10 10 8 7 8 8
4 3 3 5 7 7 7 7 6 7 4 1 3 3 1 1 1 2 4 4 2 6 6 4 3 3 2 1 1 4 4 2 2 3 1 3 3 5 8 5 5 9 6 4 3 2 5 3 4 5 7 9 6 6 8 9 7 5 6 7 3 4 3 1 2 1 3 4 2 2 3 4 3 2 3 8 10 7 8 11 12 11 10 10 8 8 8 8
6 5 4 5 6 4 4 6 8 8 3 2 4 1 1 1 1 1 5 5 2 4 4 2 1 3 3 2 2 2 5 3 3 4 2 2 3 4 8 6 5 9 7 4 2 2 3 2 5 7 8 7 5 5 5 7 8 7 6 6 7 5 5 2 3 2 2 3 1 2 4 4 3 4 7 10 9 7 9 12 13 12 11 9 8 9 9 9
5 3 2 3 4 2 7 10 9 5 1 2 3 1 0 1 2 3 4 3 2 2 2 2 1 2 3 1 3 2 3 5 4 3 2 2 3 4 7 6 4 8 9 6 3 2 1 1 4 5 8 6 5 5 5 7 8 6 5 5 6 5 6 5 3 3 4 4 1 2 4 4 2 4 10 15 15 14 14 14 13 12 11 10 9 9 9 8
2 2 1 3 4 6 14 13 7 3 1 2 2 1 1 2 3 4 4 1 1 1 2 3 2 2 3 2 3 3 1 3 4 3 3 4 4 4 5 7 5 8 9 8 5 1 1 2 3 3 4 6 5 6 8 8 7 6 5 6 7 4 3 4 2 2 5 4 3 4 3 4 2 4 10 15 16 16 16 15 12 10 11 11 10 9 8 8
1 1 1 5 2 13 16 9 4 1 1 1 2 1 2 3 4 5 5 4 3 3 5 5 3 1 2 2 3 3 2 0 3 3 2 4 5 3 5 7 8 8 7 6 6 3 1 3 2 1 2 5 7 7 8 9 8 7 6 5 7 6 4 4 4 1 3 4 4 5 3 4 3 3 8 11 12 13 14 14 12 10 12 11 10 11 10 9
1 0 1 6 5 18 11 3 2 1 0 1 2 2 3 4 4 4 5 4 3 4 6 6 5 4 3 3 2 2 3 2 1 3 1 4 6 4 5 7 9 9 8 5 5 4 3 3 2 1 3 6 8 6 6 9 9 8 7 6 4 3 5 6 6 3 3 3 2 3 2 3 4 1 7 9 11 12 13 13 12 10 11 11 11 11 11 9
1 1 3 6 7 16 6 1 3 1 1 1 3 4 3 3 3 4 5 3 3 4 4 3 4 5 4 4 3 2 4 2 1 2 2 2 5 6 6 7 8 8 8 5 4 4 4 2 1 2 3 4 6 5 3 7 9 7 7 7 5 4 4 5 5 4 4 3 3 4 1 3 2 1 7 9 10 11 12 13 13 11 9 10 10 10 10 9
2 2 2 3 8 13 3 0 3 2 2 2 4 4 4 4 4 6 6 3 3 3 2 3 5 5 4 3 3 3 4 1 0 2 1 2 3 4 3 6 7 6 6 6 5 4 3 2 2 1 2 4 4 3 1 4 7 5 5 6 7 8 6 4 3 4 3 4 6 6 3 3 2 5 9 11 11 11 11 12 14 13 10 9 9 8 9 9
3 1 0 1 6 8 1 2 1 1 2 2 3 4 4 3 4 7 7 6 7 5 3 4 5 4 3 0 1 4 5 2 2 2 1 0 3 2 1 2 6 6 5 8 10 7 4 3 3 3 3 2 2 3 3 5 5 4 6 9 10 11 9 5 3 4 4 4 5 6 4 2 5 9 11 13 13 12 11 12 13 13 12 10 9 8 8 9
2 1 0 2 3 3 1 2 1 0 2 2 3 3 5 4 3 5 6 7 10 10 8 7 6 4 2 1 1 4 4 3 3 2 2 1 3 3 2 3 5 7 7 11 13 8 3 3 4 6 6 6 5 5 4 4 6 6 8 10 8 8 9 7 5 4 5 5 3 2 6 9 9 10 12 13 14 13 12 13 13 13 13 11 9 9 9 9
1 1 1 2 2 2 2 2 3 2 1 1 2 2 3 4 3 3 5 7 9 9 7 7 7 5 4 3 3 3 1 1 1 1 1 2 3 3 5 5 2 2 5 11 12 6 4 3 3 6 5 6 5 6 8 3 7 8 8 9 8 7 9 8 4 5 7 8 2 4 10 14 11 11 14 15 16 15 14 14 13 12 12 11 10 11 11 11
1 1 1 1 0 3 3 3 5 6 5 3 1 2 3 4 4 3 4 6 6 6 3 3 7 8 7 6 3 1 1 1 1 1 1 1 2 3 5 3 2 6 2 8 8 4 6 3 2 4 1 4 4 6 8 4 3 4 4 5 7 9 11 9 6 8 10 8 6 10 16 16 14 16 19 18 16 16 15 14 13 12 12 12 12 13 13 13
1 1 1 2 2 1 2 2 4 6 7 5 3 4 5 6 7 6 5 4 5 4 2 1 3 6 7 6 4 1 2 2 1 2 1 2 2 2 4 2 3 7 5 5 6 3 5 2 2 5 2 5 6 7 6 2 4 6 6 4 1 6 10 8 5 7 6 2 8 18 17 10 9 15 16 13 13 13 13 12 12 13 14 14 13 13 13 12
0 1 1 2 2 2 2 2 3 4 5 4 4 4 4 6 8 7 5 3 4 4 2 2 3 3 1 3 5 3 5 5 3 2 1 2 2 0 2 0 3 5 5 1 3 3 5 1 1 6 3 5 5 6 4 5 7 7 6 7 7 3 5 6 6 6 5 5 7 16 12 4 3 9 12 12 13 14 14 13 13 13 14 15 14 13 12 12
3 4 3 2 2 2 2 2 3 3 3 3 4 4 4 7 7 4 4 5 7 6 2 2 4 5 3 1 3 4 6 6 5 5 4 2 2 2 2 2 2 2 5 2 0 3 6 2 3 5 2 5 4 4 4 4 9 8 6 8 8 4 3 4 4 4 7 11 13 12 8 5 6 11 13 13 15 16 17 16 14 12 13 15 15 13 12 12
7 6 3 1 2 2 1 2 3 3 2 3 4 4 3 6 5 2 4 4 5 6 3 1 2 2 2 2 4 7 6 5 6 7 5 5 4 3 2 2 4 3 1 1 1 2 7 5 2 4 2 4 4 4 7 1 6 3 3 4 5 3 1 3 4 4 8 14 13 8 7 8 12 15 16 15 16 17 17 15 13 13 13 13 14 14 13 12
Wind_Direction
313 314 315 315 315 317 317 318 318 318 318 317 317 318 318 319 318 319 320 319 322 324 323 322 321 323 321 322 324 322 320 317 314 312 278 252 249 241 244 243 220 204 207 236 247 236 271 281 229 191 145 146 156 181 181 169 134 84 106 170 220 209 211 198 200 203 223 284 314 317 343 11 302 328 84 71 77 99 92 65 69 58 68 98 110 125 136 142
308 310 312 312 313 313 314 315 315 315 315 315 316 317 318 317 315 316 318 318 318 321 326 325 322 323 323 324 324 321 319 316 310 293 266 261 262 252 246 238 219 211 217 234 239 208 161 178 223 174 126 143 216 179 178 184 154 155 144 194 228 204 222 216 223 258 283 289 315 316 329 9 260 192 99 106 110 107 98 87 90 90 94 100 113 127 135 142
305 307 307 309 310 311 311 311 312 313 313 314 314 316 317 315 314 314 315 317 316 319 324 325 325 325 326 324 322 321 319 318 307 269 277 289 272 256 246 233 220 220 233 241 248 215 180 185 200 149 104 174 229 168 170 220 182 176 175 221 241 211 243 263 258 267 271 281 313 308 323 355 261 218 89 120 117 116 127 133 124 122 124 118 124 131 136 144
301 302 303 306 307 308 309 309 310 311 311 312 312 314 315 314 314 314 315 316 316 317 320 324 326 326 327 324 321 320 319 316 278 232 352 349 306 270 243 228 219 219 230 233 247 229 199 195 181 144 117 202 280 100 168 232 203 177 193 207 231 203 244 264 255 257 261 269 297 300 331 344 282 225 141 135 120 150 186 170 149 140 138 133 137 139 140 145
298 298 300 302 304 306 307 308 308 309 309 310 311 312 312 313 313 313 314 314 316 318 318 322 323 326 327 324 322 320 319 299 249 47 16 356 334 297 232 217 215 221 224 221 226 206 190 175 71 108 115 186 251 111 207 229 174 195 228 201 214 217 248 260 251 254 265 356 318 316 334 325 299 176 161 151 146 185 199 188 155 144 145 143 144 144 144 147
294 295 297 298 302 304 305 307 307 308 309 308 310 310 310 311 310 310 310 312 316 316 317 321 322 327 327 323 322 315 273 235 2 43 12 4 357 317 216 207 211 219 217 211 208 179 172 136 98 145 129 156 193 194 239 239 158 227 263 201 213 227 243 266 269 267 306 357 299 300 313 334 20 168 173 120 134 134 116 128 138 138 139 138 140 142 147 150
290 292 294 296 299 300 302 305 305 307 307 307 308 307 308 309 308 309 309 312 314 316 319 320 322 326 328 329 328 309 213 273 279 349 357 12 15 13 193 201 205 212 206 194 192 178 163 137 155 174 125 149 205 208 246 271 178 221 261 274 245 233 237 260 269 274 287 275 269 286 324 350 161 188 70 25 49 94 103 110 118 125 127 127 132 140 146 146
285 288 290 293 295 298 301 303 304 306 306 307 305 305 305 305 307 308 309 311 312 316 318 317 324 326 330 337 341 335 261 258 260 291 331 1 18 29 46 190 195 200 194 188 188 174 150 151 178 171 136 202 193 195 224 228 236 233 242 273 270 252 248 258 266 274 276 265 263 55 355 19 138 137 60 39 86 99 108 115 120 123 124 124 129 136 139 135
278 283 286 290 293 295 300 302 304 305 306 306 304 302 302 302 306 307 306 307 309 314 313 316 320 322 329 332 340 312 255 244 256 268 298 329 357 25 40 87 183 192 187 195 192 167 159 173 197 180 165 210 189 207 191 166 246 234 220 242 259 264 263 264 271 270 268 267 96 79 108 127 114 77 47 37 109 112 114 119 126 127 129 128 129 131 127 124
274 278 280 286 290 293 297 300 303 305 306 305 303 301 301 304 305 304 302 301 306 309 310 316 315 321 329 321 276 268 257 257 258 254 279 312 328 352 24 54 158 194 186 196 186 171 184 183 194 175 145 211 210 221 179 175 231 219 205 240 247 261 272 260 259 266 275 277 178 135 163 161 143 75 71 126 127 125 121 124 133 132 132 129 125 124 122 118
272 273 276 281 285 290 294 298 301 303 305 305 304 302 300 302 300 300 299 297 303 305 307 310 311 318 315 306 244 240 245 267 254 266 296 307 312 321 331 345 342 276 224 202 185 191 202 191 164 103 141 220 243 242 201 204 252 258 248 272 265 267 282 256 249 266 284 284 191 140 160 174 12 99 147 156 141 135 130 133 138 134 131 127 126 122 118 110
270 269 271 276 282 287 291 296 299 301 304 305 305 303 300 299 296 296 296 297 300 299 302 301 305 309 291 276 238 233 236 270 286 302 301 300 302 300 302 300 301 299 279 250 211 207 209 202 151 150 213 206 271 234 225 261 316 287 251 266 282 301 299 247 236 252 221 262 210 118 105 330 341 149 147 143 142 139 134 137 138 134 130 129 128 120 115 123
272 268 267 272 278 282 288 293 297 300 302 304 303 303 301 297 294 293 294 295 295 296 298 296 295 291 281 262 247 249 261 281 291 299 292 290 293 285 284 282 279 281 270 262 250 231 218 202 177 216 266 57 251 257 301 318 344 313 272 182 274 330 304 252 217 209 198 256 254 120 143 284 285 154 145 144 145 140 137 140 139 134 133 132 125 118 122 137
276 271 267 268 273 277 284 289 295 298 298 300 302 301 299 296 293 290 290 291 293 296 295 293 290 280 260 257 270 271 276 283 286 287 279 276 281 278 271 265 271 274 269 263 256 254 234 201 182 214 286 239 240 303 335 341 359 322 288 223 245 182 272 278 229 170 193 275 12 132 195 256 222 152 151 155 149 143 142 145 140 131 130 127 120 122 127 137
282 276 269 266 268 271 278 285 291 295 298 301 301 301 297 294 293 288 287 289 291 292 291 291 275 265 277 268 278 290 292 273 270 267 263 261 264 268 263 257 270 268 271 269 254 254 228 191 179 190 262 249 216 301 332 339 345 49 190 279 324 170 258 299 256 172 187 272 52 142 191 227 180 162 159 156 149 142 140 146 141 135 139 135 125 125 125 129
290 281 274 268 267 268 273 280 288 294 300 303 304 304 301 294 290 287 288 288 287 285 287 293 250 217 255 274 287 310 264 238 257 266 265 253 243 243 252 270 293 276 282 279 246 233 201 175 174 168 191 242 168 137 20 330 315 1 162 227 255 167 237 304 277 211 192 166 30 153 151 158 186 176 162 149 148 142 138 145 142 139 143 134 127 130 133 134
295 286 279 272 268 267 270 275 284 293 299 304 304 305 305 297 288 286 289 285 277 270 258 257 225 200 246 275 304 305 252 247 262 276 279 254 238 237 247 284 298 288 306 296 224 204 186 171 187 168 168 201 157 132 157 237 246 305 147 194 215 181 184 245 275 259 194 150 181 166 129 176 182 170 157 147 155 148 142 147 146 142 134 127 130 137 143 141
298 292 284 275 268 266 269 272 280 290 298 303 300 303 306 299 289 286 282 270 250 250 249 245 225 189 251 263 281 275 274 290 288 288 273 252 234 227 220 212 275 324 326 308 185 168 176 193 173 145 173 187 176 165 191 215 191 177 175 159 209 218 195 218 241 229 165 146 176 158 152 268 164 162 155 155 166 159 153 153 148 141 133 136 142 143 144 138
300 295 289 281 272 268 268 270 277 287 297 298 300 309 312 306 292 278 255 216 158 176 228 208 191 191 281 244 227 265 296 304 301 295 250 222 213 208 197 201 225 55 267 231 180 175 164 162 158 182 205 193 188 184 187 188 151 163 182 158 168 201 228 229 246 239 154 132 183 172 173 177 162 167 160 160 168 164 160 154 144 141 140 141 143 144 141 129
300 296 292 286 277 271 268 269 275 284 294 299 311 323 328 338 10 46 195 195 205 232 251 180 188 234 293 275 230 314 320 315 299 291 242 202 178 165 170 170 119 145 207 173 184 183 146 180 208 202 197 178 175 169 169 186 163 150 163 178 179 187 247 252 254 264 150 139 211 170 145 160 166 172 164 154 160 169 163 154 147 145 143 145 146 143 134 122
299 297 295 290 283 274 267 267 271 282 291 297 317 333 326 302 291 354 338 234 230 235 251 229 199 224 259 260 293 337 333 325 306 296 274 219 165 150 172 161 141 187 208 170 162 141 157 204 217 193 169 160 161 155 160 196 213 187 159 188 212 194 241 259 253 274 141 147 236 131 125 168 179 173 163 150 161 182 175 160 152 147 141 142 144 141 131 123
299 297 295 290 286 277 268 267 268 279 286 292 310 301 259 270 259 273 298 277 255 231 234 237 219 232 251 256 271 293 311 300 301 299 271 204 175 178 178 157 165 184 181 175 158 160 199 216 188 162 157 145 148 157 162 188 210 217 193 174 226 226 247 276 284 332 104 161 258 123 120 277 224 167 163 161 170 177 165 154 151 145 142 146 146 141 136 131
299 295 294 292 286 277 269 267 268 274 278 284 279 233 255 281 265 296 295 283 278 240 219 224 221 232 246 255 253 224 202 221 258 285 227 175 188 192 168 165 172 164 176 194 185 178 203 212 163 153 150 143 152 169 167 184 203 201 193 172 214 233 186 259 288 337 69 134 141 118 99 0 11 103 114 112 131 100 92 94 3 114 135 144 144 137 140 139
296 294 293 291 283 275 267 265 271 270 272 279 263 249 274 297 288 288 285 271 276 250 215 211 205 220 234 238 210 187 197 201 203 258 220 177 174 166 169 171 156 169 198 196 191 193 211 204 160 149 154 159 164 177 171 183 211 206 193 174 187 206 188 218 283 329 17 60 119 107 66 347 2 103 120 62 47 31 59 105 53 340 96 131 130 129 138 138
292 290 287 287 285 278 264 264 270 264 270 274 263 271 305 318 304 283 245 302 277 262 223 204 198 225 222 194 165 169 195 219 208 233 211 177 181 168 170 169 161 193 193 169 177 203 244 229 157 153 173 175 174 189 183 176 197 233 206 177 179 175 186 243 338 17 39 10 258 118 87 305 310 262 173 129 113 87 56 102 111 341 290 136 130 136 138 134
289 285 283 285 286 279 262 258 252 248 277 264 264 304 331 337 327 262 184 354 280 251 175 163 177 198 181 160 159 152 160 225 213 219 220 203 199 185 179 170 159 192 168 141 176 194 218 221 164 168 178 179 191 205 194 172 167 237 203 170 181 167 156 195 2 43 100 253 278 146 148 231 288 255 189 161 143 129 137 146 135 159 209 157 144 146 139 133
286 281 279 281 279 266 233 224 235 226 274 274 298 325 328 342 346 189 172 357 286 218 150 146 177 176 170 172 164 147 175 216 186 203 214 216 212 191 194 176 117 172 150 135 206 191 171 188 194 187 175 182 206 206 189 165 152 232 193 157 168 165 154 179 190 175 195 238 307 344 139 155 216 220 193 164 148 142 162 165 152 163 169 154 162 149 130 132
283 278 275 276 274 254 227 234 271 249 262 293 318 321 326 343 341 185 137 14 247 151 132 186 199 170 158 164 163 162 216 204 145 180 195 202 206 174 192 193 132 157 164 159 200 213 156 181 200 189 183 200 202 177 160 153 155 221 165 144 163 172 165 177 194 224 214 11 304 286 150 142 228 200 178 171 159 158 171 169 161 163 163 164 164 140 125 128
281 278 271 270 276 261 237 237 255 258 275 308 324 317 325 341 215 182 38 186 226 87 107 137 191 160 120 143 175 197 219 203 174 168 166 189 207 200 196 183 132 152 199 178 188 215 165 180 189 184 199 207 170 148 153 152 176 197 132 119 145 171 170 173 191 199 110 123 247 236 182 158 252 202 178 186 174 168 169 170 169 160 159 159 143 135 130 122
281 275 268 270 276 259 232 234 247 261 289 319 321 316 324 333 165 134 140 221 314 18 87 86 199 155 140 150 189 223 215 273 284 144 137 157 194 208 172 137 122 153 219 198 179 232 264 173 181 189 200 181 149 163 159 155 176 164 119 92 93 147 151 143 159 111 106 249 237 217 192 174 215 210 192 195 173 167 162 159 167 153 148 144 127 131 129 119
281 271 267 268 257 230 214 228 238 263 326 330 325 327 332 190 132 118 178 263 346 355 12 4 136 143 157 165 176 203 203 274 325 142 155 155 158 179 154 139 145 156 201 230 204 235 269 236 195 185 165 154 164 185 160 153 174 161 123 114 109 73 47 63 27 79 170 244 241 203 184 179 216 217 195 185 156 166 165 160 161 148 140 137 124 126 125 120
278 272 267 261 244 218 204 182 180 297 340 337 342 357 152 181 116 171 242 312 345 337 338 349 41 133 186 208 181 178 170 179 257 156 154 161 167 183 180 171 170 166 197 212 176 199 239 247 260 223 174 170 171 181 162 155 178 175 136 138 155 176 158 176 214 194 209 241 252 186 163 172 251 241 194 180 169 169 166 158 153 145 139 135 127 127 124 122
279 275 266 257 245 223 214 210 226 291 331 341 0 40 191 201 197 209 262 324 42 341 310 295 324 303 204 216 212 176 162 158 196 172 142 154 166 187 202 198 173 158 177 174 142 167 217 266 265 233 200 177 175 178 177 173 180 184 169 155 168 166 167 198 204 218 238 251 303 167 160 181 279 297 211 179 164 154 142 137 141 135 134 132 128 127 120 118
282 274 264 256 244 230 226 231 251 287 334 344 8 105 188 192 211 197 211 324 354 328 311 313 311 297 189 187 202 159 161 231 181 155 141 153 168 188 203 206 185 152 114 147 161 174 191 243 236 209 200 173 184 191 171 144 159 184 161 129 159 177 172 196 196 187 217 237 341 27 162 192 201 305 260 157 131 118 125 135 131 118 121 123 120 122 118 115
304 279 268 259 247 237 232 236 252 279 336 341 177 183 193 185 184 58 79 343 352 331 316 314 304 302 155 185 203 165 165 229 193 153 138 164 177 187 189 202 196 171 128 162 195 181 190 230 224 188 204 181 184 189 144 122 155 183 127 128 191 195 150 160 181 164 153 133 19 350 182 246 173 36 56 125 120 115 123 129 125 122 125 123 120 123 120 116
340 289 264 251 248 245 239 242 247 238 235 249 216 212 201 183 170 139 8 4 358 333 322 319 343 47 32 126 198 208 176 147 183 176 147 175 175 179 184 196 192 181 157 161 191 172 182 240 297 165 211 210 185 172 161 164 179 169 156 185 208 152 113 113 192 137 103 130 186 274 200 297 156 89 98 124 127 128 129 126 128 132 131 127 124 125 123 121
346 331 281 253 258 259 252 245 219 199 193 227 235 206 155 307 182 127 36 36 358 330 334 328 359 22 357 38 216 213 172 117 181 182 197 206 189 175 183 194 180 184 188 155 174 192 160 221 263 175 202 225 191 164 186 181 150 143 192 195 131 94 113 116 142 62 74 148 219 289 197 184 176 179 134 119 117 123 125 124 129 132 130 129 126 127 125 122
341 335 294 272 284 278 240 206 183 174 168 236 244 231 96 272 258 36 29 38 2 333 344 311 311 16 18 10 317 237 172 173 189 178 184 222 237 190 176 190 183 180 189 156 153 238 150 190 251 197 187 213 181 157 204 199 170 169 183 161 127 154 212 200 163 182 140 145 213 273 215 204 198 189 154 133 126 128 127 127 133 137 135 131 127 127 124 118
334 331 297 303 317 238 175 167 166 163 176 228 226 244 346 282 298 339 24 37 323 311 317 306 344 5 2 334 300 308 177 178 178 182 178 164 233 214 169 176 191 178 177 165 169 239 132 127 266 218 181 180 167 168 201 209 201 186 145 146 160 178 201 200 181 163 143 142 171 190 208 224 228 189 165 157 156 155 148 143 142 141 139 133 130 129 124 123
332 337 273 328 339 166 157 152 156 162 206 244 245 252 335 336 309 337 16 4 265 233 275 321 26 6 329 323 299 301 227 174 169 186 195 174 206 242 188 171 176 175 168 169 184 203 87 160 264 268 179 163 183 206 200 193 195 182 152 171 191 177 168 184 174 110 130 147 161 166 202 240 233 181 174 168 163 160 154 146 142 140 138 133 130 130 128 131
335 6 259 339 40 152 149 143 159 189 205 268 311 291 323 320 305 329 333 294 265 226 250 280 291 278 304 312 301 302 315 281 172 182 201 184 188 241 217 178 160 160 159 173 198 194 123 174 213 299 171 185 218 223 195 183 178 173 173 191 199 178 144 172 209 194 113 137 162 159 183 245 259 185 169 166 159 154 146 139 135 136 136 134 133 135 137 138
317 211 304 355 124 152 148 130 168 174 163 225 306 300 307 312 313 323 314 305 297 248 239 251 249 242 242 238 247 276 282 291 184 177 162 178 190 217 223 185 163 160 156 167 204 190 151 146 163 235 211 214 238 248 209 187 168 164 189 198 185 158 136 164 202 202 96 96 108 107 146 254 291 225 150 150 150 146 140 134 131 132 134 136 138 140 138 136
317 251 307 344 155 160 150 67 168 206 254 264 315 300 295 305 300 300 300 323 320 263 242 236 230 225 223 217 210 238 247 235 179 198 171 163 210 229 215 181 167 160 156 168 194 185 174 166 193 283 294 289 280 283 246 187 158 159 199 186 161 185 178 161 179 164 126 137 116 91 166 254 293 118 132 133 136 137 136 132 129 129 133 137 142 142 137 132
305 257 301 341 172 172 175 18 169 213 234 279 312 288 291 296 265 270 279 281 283 280 288 266 233 214 215 211 194 232 263 268 230 253 199 160 244 254 199 185 184 166 167 183 180 182 205 194 130 49 336 337 331 332 332 183 174 174 188 177 177 188 172 127 124 117 133 190 162 139 189 241 164 136 131 132 132 130 133 134 132 133 138 142 142 138 134 132
303 247 264 19 170 178 230 7 103 179 210 255 288 273 281 283 250 248 250 258 258 249 255 259 236 209 209 159 179 238 254 227 202 287 350 126 286 304 59 194 188 173 198 190 165 163 187 175 140 144 176 181 186 219 210 180 190 189 172 177 182 176 165 150 131 135 176 200 151 143 179 172 130 135 135 139 139 132 134 138 137 139 142 143 139 133 134 133
309 310 7 68 134 181 282 332 326 245 190 222 268 262 245 243 264 252 237 250 248 235 237 251 248 230 199 67 287 247 245 204 200 286 347 326 277 270 304 270 182 176 209 186 161 149 139 152 149 148 172 191 194 230 246 172 178 193 184 181 176 162 152 131 122 168 182 151 125 200 165 140 143 151 147 147 146 140 142 145 145 144 142 139 136 133 133 129
286 335 21 83 109 200 245 275 272 262 233 229 262 286 247 244 298 282 232 241 242 232 232 235 232 223 187 179 231 247 279 305 248 263 256 258 267 274 293 288 181 181 219 183 165 135 108 158 174 142 170 216 219 259 288 262 188 184 177 175 167 148 136 126 147 187 158 136 168 231 161 150 161 164 157 157 154 149 151 152 149 143 137 133 131 131 130 125
278 342 334 327 260 186 199 231 230 235 261 280 283 304 291 274 285 277 244 254 255 241 239 224 214 213 207 197 196 223 314 353 332 276 253 316 328 324 320 312 4 2 348 175 176 135 113 155 183 123 165 271 278 286 293 290 150 121 113 149 160 158 154 152 177 179 159 155 177 179 171 168 170 168 166 163 157 150 148 146 141 133 129 130 131 132 132 129
309 317 271 289 307 198 208 228 201 216 244 253 244 253 263 266 266 258 251 272 278 262 269 287 226 218 217 196 147 150 219 151 77 273 287 22 346 337 2 343 321 356 28 163 193 152 112 125 129 100 33 306 309 311 294 219 113 71 45 35 80 170 164 151 149 152 145 148 165 164 168 170 165 166 161 148 137 134 132 134 135 133 133 134 135 135 134 133
350 293 276 302 299 237 231 252 211 212 230 230 238 249 249 257 262 260 250 240 266 287 316 311 298 315 276 172 142 180 212 171 148 215 178 20 338 275 56 313 275 342 11 144 206 142 119 81 18 83 51 297 311 334 286 181 121 87 55 24 17 47 120 115 117 122 88 50 131 146 141 102 116 140 133 129 132 131 133 139 139 138 138 137 136 135 133 133
312 259 241 297 307 236 208 219 211 223 231 211 225 238 239 246 253 272 274 227 225 252 286 327 317 338 2 109 168 227 226 185 193 227 219 239 265 208 188 185 173 1 360 359 248 130 120 85 12 78 82 275 305 339 270 175 104 77 43 17 9 24 94 115 126 139 132 122 120 126 133 147 147 132 127 135 140 139 143 146 143 141 142 140 138 136 135 135
328 286 247 245 290 274 227 206 211 228 229 206 223 237 250 258 262 290 294 266 235 233 221 68 8 345 330 294 246 240 230 203 227 242 216 204 217 206 203 174 145 126 26 352 342 122 126 118 101 117 149 252 255 275 277 199 107 71 354 349 333 339 71 102 88 101 135 135 136 156 172 158 145 139 139 145 149 149 149 148 145 142 141 140 140 138 136 135